Weather History for Elizabethton, TN

Change the Weather History Date:

Friday, March 8, 2013

  Actual Average (KTRI) Record (KTRI)
Temperature  
Mean Temperature 35 °F 44 °F  
Max Temperature 44 °F 57 °F 78 °F (2000)
Min Temperature 26 °F 33 °F 9 °F (1960)
Degree Days  
Heating Degree Days 30 20  
Month to date heating degree days 171  
Since 1 July heating degree days 3553  
Cooling Degree Days 0 0  
Month to date cooling degree days 0  
Year to date cooling degree days 0  
Moisture  
Dew Point 24 °F    
Average Humidity 70    
Maximum Humidity 93    
Minimum Humidity 42    
Precipitation  
Precipitation 0.00 in 0.11 in 1.53 in (1995)
Month to date precipitation 0.89  
Year to date precipitation 7.71  
Snow  
Snow 0.00 in 0.10 in - ()
Month to date snowfall 0.5  
Since 1 July snowfall 11.3  
Snow Depth -    
Sea Level Pressure  
Sea Level Pressure 30.32 in    
Wind  
Wind Speed 4 mph (WNW)    
Max Wind Speed 13 mph    
Max Gust Speed -    
Visibility 10 miles    
Events Rain    
T = Trace of Precipitation, MM = Missing Value Source: NWS Daily Summary

Daily Weather History Graph

Daily Weather History Graph

Search for Another Location

Airport:

Trip Planner

Search our weather history database for the weather conditions in past years. The results will help you decide how hot, cold, wet, or windy it might be!

Date:

Astronomy

Mar. 08, 2013 Rise Set
Actual Time 6:49 AM EST 6:30 PM EST
Civil Twilight 6:23 AM EST 6:55 PM EST
Nautical Twilight 5:53 AM EST 7:25 PM EST
Astronomical Twilight 5:23 AM EST 7:55 PM EST
Moon 4:27 AM EST (3/8) 3:27 PM EST (3/8)
Length of Visible Light 12h 32m
Length of Day
11h 40m
Waning Crescent, 12% of the Moon is Illuminated
Mar 8
Waning Crescent
Mar 11
New
Mar 19
First Quarter
Mar 27
Full
Apr 3
Last Quarter

Hourly Weather History & Observations

Time (EST) Temp. Windchill Dew Point Humidity Pressure Visibility Wind Dir Wind Speed Gust Speed Precip Events Conditions
12:55 AM 30.2 °F - 24.8 °F 80% 30.29 in 10.0 mi Calm Calm - N/A   Overcast
1:15 AM 30.2 °F 26.7 °F 24.8 °F 80% 30.30 in 10.0 mi West 3.5 mph - N/A   Overcast
1:35 AM 28.4 °F - 24.8 °F 86% 30.30 in 10.0 mi Calm Calm - N/A   Overcast
1:55 AM 28.4 °F 24.6 °F 24.8 °F 86% 30.30 in 10.0 mi WNW 3.5 mph - N/A   Overcast
2:15 AM 28.4 °F 24.6 °F 24.8 °F 86% 30.30 in 10.0 mi NW 3.5 mph - N/A   Mostly Cloudy
2:35 AM 28.4 °F 24.6 °F 24.8 °F 86% 30.29 in 10.0 mi NW 3.5 mph - N/A   Overcast
2:55 AM 28.4 °F - 24.8 °F 86% 30.28 in 10.0 mi Calm Calm - N/A   Overcast
3:15 AM 28.4 °F 24.6 °F 24.8 °F 86% 30.27 in 10.0 mi WNW 3.5 mph - N/A   Overcast
3:35 AM 26.6 °F 21.2 °F 24.8 °F 93% 30.27 in 10.0 mi NW 4.6 mph - N/A   Overcast
3:55 AM 26.6 °F 22.6 °F 24.8 °F 93% 30.28 in 10.0 mi WNW 3.5 mph - N/A   Overcast
4:15 AM 26.6 °F - 24.8 °F 93% 30.29 in 10.0 mi Calm Calm - N/A   Overcast
4:55 AM 28.4 °F 23.3 °F 23.0 °F 80% 30.30 in 10.0 mi SW 4.6 mph - N/A   Overcast
5:15 AM 28.4 °F 22.2 °F 23.0 °F 80% 30.30 in 10.0 mi SW 5.8 mph - N/A   Overcast
5:35 AM 28.4 °F 22.2 °F 23.0 °F 80% 30.30 in 10.0 mi SW 5.8 mph - N/A   Overcast
5:55 AM 28.4 °F 23.3 °F 23.0 °F 80% 30.30 in 10.0 mi Variable 4.6 mph - N/A   Overcast
6:15 AM 28.4 °F 21.2 °F 23.0 °F 80% 30.31 in 10.0 mi SW 6.9 mph - N/A   Overcast
7:35 AM 28.4 °F 20.4 °F 21.2 °F 74% 30.35 in 10.0 mi SW 8.1 mph - N/A   Overcast
7:55 AM 28.4 °F 19.7 °F 21.2 °F 74% 30.36 in 10.0 mi SW 9.2 mph - N/A   Overcast
8:15 AM 28.4 °F 19.7 °F 21.2 °F 74% 30.36 in 10.0 mi SW 9.2 mph - N/A   Overcast
8:35 AM 28.4 °F 19.7 °F 21.2 °F 74% 30.36 in 10.0 mi SW 9.2 mph - N/A   Overcast
8:55 AM 30.2 °F 21.3 °F 23.0 °F 75% 30.35 in 10.0 mi SW 10.4 mph - N/A   Overcast
9:15 AM 30.2 °F 23.4 °F 23.0 °F 75% 30.35 in 10.0 mi SW 6.9 mph - N/A   Overcast
9:35 AM 30.2 °F 26.7 °F 23.0 °F 75% 30.36 in 10.0 mi Variable 3.5 mph - N/A   Overcast
9:55 AM 32.0 °F 24.8 °F 23.0 °F 69% 30.35 in 10.0 mi West 8.1 mph - N/A   Overcast
10:15 AM 32.0 °F 28.7 °F 21.2 °F 64% 30.36 in 10.0 mi Variable 3.5 mph - N/A   Overcast
10:35 AM 33.8 °F 24.8 °F 23.0 °F 65% 30.35 in 10.0 mi WNW 12.7 mph - N/A   Overcast
10:55 AM 33.8 °F - 21.2 °F 60% 30.36 in 10.0 mi Calm Calm - N/A   Mostly Cloudy
11:15 AM 35.6 °F 28.0 °F 23.0 °F 60% 30.35 in 10.0 mi West 10.4 mph - N/A   Mostly Cloudy
11:35 AM 35.6 °F 28.0 °F 23.0 °F 60% 30.36 in 10.0 mi NNW 10.4 mph - N/A   Overcast
11:55 AM 37.4 °F 32.1 °F 24.8 °F 60% 30.35 in 10.0 mi West 6.9 mph - N/A   Mostly Cloudy
12:15 PM 37.4 °F 32.8 °F 23.0 °F 56% 30.35 in 10.0 mi Variable 5.8 mph - N/A   Mostly Cloudy
12:35 PM 37.4 °F 34.9 °F 23.0 °F 56% 30.34 in 10.0 mi NE 3.5 mph - N/A   Scattered Clouds
12:55 PM 39.2 °F 35.9 °F 24.8 °F 56% 30.33 in 10.0 mi Variable 4.6 mph - N/A   Scattered Clouds
1:15 PM 42.8 °F 37.5 °F 24.8 °F 49% 30.32 in 10.0 mi NNW 9.2 mph - N/A Rain Light Rain
1:35 PM 42.8 °F 37.5 °F 24.8 °F 49% 30.31 in 10.0 mi West 9.2 mph - N/A   Partly Cloudy
1:55 PM 42.8 °F 37.5 °F 23.0 °F 46% 30.31 in 10.0 mi West 9.2 mph - N/A Rain Light Rain
2:15 PM 42.8 °F 40.1 °F 21.2 °F 42% 30.31 in 10.0 mi Variable 4.6 mph - N/A   Clear
2:35 PM 42.8 °F 39.3 °F 23.0 °F 46% 30.31 in 10.0 mi WNW 5.8 mph - N/A   Clear
2:55 PM 44.6 °F 43.1 °F 24.8 °F 46% 30.32 in 10.0 mi Variable 3.5 mph - N/A   Clear
3:15 PM 44.6 °F 39.2 °F 24.8 °F 46% 30.31 in 10.0 mi West 10.4 mph - N/A   Clear
3:35 PM 44.6 °F 39.7 °F 24.8 °F 46% 30.31 in 10.0 mi NW 9.2 mph - N/A   Clear
3:55 PM 44.6 °F 41.4 °F 23.0 °F 43% 30.31 in 10.0 mi West 5.8 mph - N/A   Clear
4:15 PM 42.8 °F 39.3 °F 23.0 °F 46% 30.31 in 10.0 mi North 5.8 mph - N/A   Clear
4:35 PM 44.6 °F 40.7 °F 23.0 °F 43% 30.30 in 10.0 mi Variable 6.9 mph - N/A   Clear
4:55 PM 42.8 °F - 23.0 °F 46% 30.29 in 10.0 mi Calm Calm - N/A   Clear
5:15 PM 42.8 °F 39.3 °F 21.2 °F 42% 30.29 in 10.0 mi NE 5.8 mph - N/A   Clear
5:35 PM 42.8 °F 41.1 °F 21.2 °F 42% 30.29 in 10.0 mi North 3.5 mph - N/A   Clear
5:55 PM 41.0 °F 36.4 °F 23.0 °F 49% 30.29 in 10.0 mi North 6.9 mph - N/A   Clear
6:15 PM 39.2 °F - 23.0 °F 52% 30.30 in 10.0 mi Calm Calm - N/A   Clear
6:35 PM 37.4 °F - 24.8 °F 60% 30.29 in 10.0 mi Calm Calm - N/A   Clear
6:55 PM 35.6 °F - 26.6 °F 70% 30.31 in 10.0 mi Calm Calm - N/A   Clear
7:15 PM 33.8 °F - 26.6 °F 75% 30.31 in 10.0 mi Calm Calm - N/A   Clear
7:35 PM 32.0 °F 28.7 °F 26.6 °F 80% 30.31 in 10.0 mi Variable 3.5 mph - N/A   Clear
7:55 PM 33.8 °F - 24.8 °F 70% 30.32 in 10.0 mi Calm Calm - N/A   Clear
8:15 PM 30.2 °F - 26.6 °F 86% 30.32 in 10.0 mi Calm Calm - N/A   Clear
8:35 PM 30.2 °F 26.7 °F 26.6 °F 86% 30.33 in 10.0 mi NNW 3.5 mph - N/A   Clear
8:55 PM 28.4 °F - 24.8 °F 86% 30.34 in 10.0 mi Calm Calm - N/A   Clear
9:15 PM 28.4 °F - 24.8 °F 86% 30.35 in 10.0 mi Calm Calm - N/A   Clear
9:35 PM 26.6 °F - 24.8 °F 93% 30.35 in 10.0 mi Calm Calm - N/A   Clear
9:55 PM 26.6 °F - 24.8 °F 93% 30.35 in 10.0 mi Calm Calm - N/A   Clear
10:15 PM 26.6 °F - 24.8 °F 93% 30.35 in 10.0 mi Calm Calm - N/A   Clear
10:35 PM 28.4 °F 23.3 °F 24.8 °F 86% 30.34 in 10.0 mi ENE 4.6 mph - N/A   Clear
10:55 PM 28.4 °F 23.3 °F 24.8 °F 86% 30.33 in 10.0 mi NE 4.6 mph - N/A   Clear
11:15 PM 28.4 °F 24.6 °F 24.8 °F 86% 30.32 in 10.0 mi NE 3.5 mph - N/A   Clear
11:35 PM 28.4 °F - 24.8 °F 86% 30.32 in 10.0 mi Calm Calm - N/A   Clear
11:55 PM 26.6 °F - 24.8 °F 93% 30.31 in 10.0 mi Calm Calm - N/A   Clear